Showing default

LEMUR 2 MARACHE-FRAN, 63262

Orbit data source: Space-Track

LEMUR 2 MARACHE-FRAN, 63262 is a payload satellite owned by Spire (US) in SSO that was launched on Sat, 15 Mar 2025 UTC via an FALCON 9 launch vehicle from the Air Force Western Test Range (AFWTR). Payload-class satellites include a variety of spacecraft equipped with specific instruments for various scientific and technological missions. These include communications satellites like Starlink; space stations such as the ISS; scientific satellites like the Hubble; Earth observation satellites from companies like Planet Labs, Umbra, and HawkEye 360; GPS; miniature CubeSats for education and research; and military/defense satellites.

Loading next visibility...
Identifier
63262, 2025-052BE
Orbit
SSO
Country
Flag of USUS
Related business
Manufacturer
Spire/Glasgow
Mission
Operational Commercial Com/MetRO
Bus & Motor
CUBESAT 6U, Unknown motor
Mass
10 kg wet, 10 kg dry
Launch date (UTC)
2025-03-15 (2 years ago)
Launch vehicle
FALCON 9
Launch site
Air Force Western Test Range (AFWTR)
Object type
Payload
Rocket body
Debris
Shape & HBR
Box, 0.2 m
Radar Cross Section
0.080 m², Medium (>0.1 m² and < 1m²)

Expand to show TLE details & history
Last TLE update: 10 hours ago

TLE from 10 hours ago
0 LEMUR 2 MARACHE-FRAN
1 63262U 25052BE  26264.69960118  .00003224  00000-0  25833-3 0  9998
2 63262  97.6652 157.1076 0011199  44.4764 315.7358 15.00797688 83232
Epoch: 2026-09-21T16:47Z
TLE epoch observation values (Epoch: 2026-09-21T16:47:25.541Z)
Latitude
0.00004°
Longitude
-95.3245°
Altitude
561.927 km
Speed
7.583 km/s
True Right ascension
10h 28m 25s
True Declination
0° 00' 00"
Sunlit
Object was in daylight at epoch
Visualization orbit readout
Latitude
Unknown
Longitude
Unknown
Altitude
Unknown
Speed
Unknown
Apparent Right ascension
Unknown
Apparent Declination
Unknown
Sunlit
N/A
Visualization observer readout
Local Sidereal Time
20:00:18
Azimuth
Unknown
Elevation
Unknown
Doppler factor
Unknown
Orbital elements
Apogee altitude
569.21 km
Perigee altitude
553.666 km
Semi-major axis
6,939.575 km
Eccentricity
0.00112
Inclination
97.6652°
RAAN
157.1076°
Arg. of periapsis
44.4764°
True anomaly
315.64614°
Mean anomaly
315.7358°
Eccentric anomaly
315.69098°
Mean motion
3.75443 °/min
Orbital period
95.89 mins
BSTAR
0.00025833
Loading maneuver chart data...
Computing Atmospheric mass density...
Loading historical data...
Loading historical data...
Loading historical data...
Loading historical data...
Loading historical data...
Loading historical data...
Loading historical data...

Documentation

Showing up to 5 results
|